Location: Brachstadt
(48.6975°N, 10.6755°E)
Time: 08:43:54
(UTC+00:00)

Cosmos 1844 Rocket - Pass Details

Date: 18 September 2020
Orbit: 823 x 846 km, 71.0° (Epoch: 24 October)

Event Time Altitude Azimuth Distance (km) Brightness Sun altitude
Rises 19:39:01 0° 205° (SSW) 3,346 5.8 -22.2°
Reaches altitude 10° 19:41:25 10° 205° (SSW) 2,418 5.0 -22.5°
Maximum altitude 19:46:59 87° 116° (ESE) 834 2.5 -23.3°
Drops below altitude 10° 19:52:36 10° 29° (NNE) 2,445 5.1 -24.1°
Sets 19:55:02 0° 29° (NNE) 3,386 5.9 -24.4°
